STARLINK-34363

导读

STARLINK-34363是美国SpaceX星链星座的一员,于2025年6月23日发射升空。作为低轨卫星,它主要服务于星链全球卫星互联网系统,为全球偏远地区、移动场景等提供高速宽带网络服务,进一步扩展星链星座的覆盖范围与服务能力。

基本信息
目录编号:
64497
目录名称:
STARLINK-34363
国际标识:
2025-133AB
轨道中心:
EARTH
卫星名称:
STARLINK-34363
卫星全名:
STARLINK-34363
卫星状态:
在轨 (已飞行355 天)
发射日期:
2025-06-23 UTC
国别 :
美国 (US)
星等 :
--
轨道信息
数据来源 国际轨道数据
星历时间: 2026-06-13T15:47:16+0800
15小时前
查看轨道信息
半长轴: 6840.851km
偏心率: 0.0001237
轨道倾角: 53.159°
近地点辐角 100.318°
升交点赤经 29.521°
平近点角 259.796°
近地点: 461.867km
远地点: 463.561km
周期: 93.848分钟
每日圈数: 15.343967
详细信息
使用方式:
暂无
2D轨道图
3D轨道图
轨道高度分析图
轨道倾角分析图
轨道综合分析图
查看轨道综合分析图